Time,TemperatureF,DewpointF,PressureIn,WindDirection,WindDirectionDegrees,WindSpeedMPH,WindSpeedGustMPH,Humidity,HourlyPrecipIn,Conditions,Clouds,dailyrainin,SoftwareType,DateUTC
2013-11-23 00:12:00,37.0,-99.9,-100.00,WSW,257,15.0,22.0,-999,-99.99,,,-99.99,,2013-11-23 05:12:00,
2013-11-23 00:23:00,37.0,-99.9,-100.00,WSW,241,16.0,19.0,-999,-99.99,,,-99.99,,2013-11-23 05:23:00,
2013-11-23 00:33:00,37.0,-99.9,-100.00,WSW,241,16.0,19.0,-999,-99.99,,,-99.99,,2013-11-23 05:33:00,
2013-11-23 00:43:00,37.0,-99.9,-100.00,WSW,241,16.0,19.0,-999,-99.99,,,-99.99,,2013-11-23 05:43:00,
2013-11-23 00:53:00,37.0,-99.9,-100.00,WSW,242,14.0,22.0,-999,-99.99,,,-99.99,,2013-11-23 05:53:00,
2013-11-23 01:12:00,37.0,-99.9,-100.00,WSW,242,14.0,22.0,-999,-99.99,,,-99.99,,2013-11-23 06:12:00,
2013-11-23 01:22:00,37.0,-99.9,-100.00,WSW,250,18.0,21.0,-999,-99.99,,,-99.99,,2013-11-23 06:22:00,
2013-11-23 01:32:00,37.0,-99.9,-100.00,WSW,250,18.0,21.0,-999,-99.99,,,-99.99,,2013-11-23 06:32:00,
2013-11-23 01:53:00,37.0,-99.9,-100.00,WSW,245,18.0,23.0,-999,-99.99,,,-99.99,,2013-11-23 06:53:00,
2013-11-23 02:02:00,37.0,-99.9,-100.00,WSW,245,18.0,23.0,-999,-99.99,,,-99.99,,2013-11-23 07:02:00,
2013-11-23 02:22:00,36.0,-99.9,-100.00,WSW,253,14.0,22.0,-999,-99.99,,,-99.99,,2013-11-23 07:22:00,
2013-11-23 02:32:00,36.0,-99.9,-100.00,WSW,253,14.0,22.0,-999,-99.99,,,-99.99,,2013-11-23 07:32:00,
2013-11-23 02:52:00,36.0,-99.9,-100.00,West,264,15.0,23.0,-999,-99.99,,,-99.99,,2013-11-23 07:52:00,
2013-11-23 03:22:00,36.0,-99.9,-100.00,West,276,18.0,23.0,-999,-99.99,,,-99.99,,2013-11-23 08:22:00,
2013-11-23 03:32:00,36.0,-99.9,-100.00,West,276,18.0,23.0,-999,-99.99,,,-99.99,,2013-11-23 08:32:00,
2013-11-23 03:52:00,35.0,-99.9,-100.00,West,266,15.0,24.0,-999,-99.99,,,-99.99,,2013-11-23 08:52:00,
2013-11-23 04:12:00,35.0,-99.9,-100.00,West,266,15.0,24.0,-999,-99.99,,,-99.99,,2013-11-23 09:12:00,
2013-11-23 04:22:00,35.0,-99.9,-100.00,WNW,284,17.0,21.0,-999,-99.99,,,-99.99,,2013-11-23 09:22:00,
2013-11-23 04:33:00,35.0,-99.9,-100.00,WNW,284,17.0,21.0,-999,-99.99,,,-99.99,,2013-11-23 09:33:00,
2013-11-23 04:43:00,35.0,-99.9,-100.00,WNW,284,17.0,21.0,-999,-99.99,,,-99.99,,2013-11-23 09:43:00,
2013-11-23 04:54:00,35.0,-99.9,-100.00,West,269,17.0,24.0,-999,-99.99,,,-99.99,,2013-11-23 09:54:00,
2013-11-23 05:23:00,35.0,-99.9,-100.00,WSW,253,18.0,22.0,-999,-99.99,,,-99.99,,2013-11-23 10:23:00,
2013-11-23 05:43:00,35.0,-99.9,-100.00,West,269,17.0,24.0,-999,-99.99,,,-99.99,,2013-11-23 10:43:00,
2013-11-23 05:52:00,34.0,-99.9,-100.00,West,275,20.0,24.0,-999,-99.99,,,-99.99,,2013-11-23 10:52:00,
2013-11-23 06:02:00,34.0,-99.9,-100.00,West,275,20.0,24.0,-999,-99.99,,,-99.99,,2013-11-23 11:02:00,
2013-11-23 06:23:00,34.0,-99.9,-100.00,West,273,22.0,26.0,-999,-99.99,,,-99.99,,2013-11-23 11:23:00,
2013-11-23 06:33:00,34.0,-99.9,-100.00,West,273,22.0,26.0,-999,-99.99,,,-99.99,,2013-11-23 11:33:00,
2013-11-23 06:43:00,34.0,-99.9,-100.00,West,273,22.0,26.0,-999,-99.99,,,-99.99,,2013-11-23 11:43:00,
2013-11-23 06:53:00,33.0,-99.9,-100.00,WNW,289,22.0,28.0,-999,-99.99,,,-99.99,,2013-11-23 11:53:00,
2013-11-23 07:02:00,33.0,-99.9,-100.00,WNW,289,22.0,28.0,-999,-99.99,,,-99.99,,2013-11-23 12:02:00,
2013-11-23 07:22:00,33.0,-99.9,-100.00,WNW,302,21.0,29.0,-999,-99.99,,,-99.99,,2013-11-23 12:22:00,
2013-11-23 07:32:00,33.0,-99.9,-100.00,WNW,302,21.0,29.0,-999,-99.99,,,-99.99,,2013-11-23 12:32:00,
2013-11-23 07:52:00,34.0,-99.9,-100.00,NW,306,23.0,0.0,-999,-99.99,,,-99.99,,2013-11-23 12:52:00,
2013-11-23 08:11:00,34.0,-99.9,-100.00,NW,306,23.0,0.0,-999,-99.99,,,-99.99,,2013-11-23 13:11:00,
2013-11-23 08:22:00,33.0,-99.9,-100.00,NW,312,24.0,33.0,-999,-99.99,,,-99.99,,2013-11-23 13:22:00,
2013-11-23 08:32:00,33.0,-99.9,-100.00,NW,312,24.0,33.0,-999,-99.99,,,-99.99,,2013-11-23 13:32:00,
2013-11-23 08:52:00,33.0,-99.9,-100.00,NW,315,26.0,30.0,-999,-99.99,,,-99.99,,2013-11-23 13:52:00,
2013-11-23 09:22:00,31.0,-99.9,-100.00,NNW,329,21.0,30.0,-999,-99.99,,,-99.99,,2013-11-23 14:22:00,
2013-11-23 09:42:00,31.0,-99.9,-100.00,NNW,329,21.0,29.0,-999,-99.99,,,-99.99,,2013-11-23 14:42:00,
2013-11-23 10:11:00,31.0,-99.9,-100.00,NW,326,27.0,0.0,-999,-99.99,,,-99.99,,2013-11-23 15:11:00,
2013-11-23 10:22:00,29.0,-99.9,-100.00,NW,308,24.0,35.0,-999,-99.99,,,-99.99,,2013-11-23 15:22:00,
2013-11-23 10:33:00,29.0,-99.9,-100.00,NW,308,24.0,35.0,-999,-99.99,,,-99.99,,2013-11-23 15:33:00,
2013-11-23 10:43:00,29.0,-99.9,-100.00,NW,308,24.0,35.0,-999,-99.99,,,-99.99,,2013-11-23 15:43:00,
2013-11-23 10:54:00,29.0,-99.9,-100.00,NW,320,23.0,0.0,-999,-99.99,,,-99.99,,2013-11-23 15:54:00,
2013-11-23 11:04:00,29.0,-99.9,-100.00,NW,320,23.0,0.0,-999,-99.99,,,-99.99,,2013-11-23 16:04:00,
2013-11-23 11:13:00,29.0,-99.9,-100.00,NW,320,23.0,0.0,-999,-99.99,,,-99.99,,2013-11-23 16:13:00,
2013-11-23 11:23:00,28.0,-99.9,-100.00,NW,321,21.0,33.0,-999,-99.99,,,-99.99,,2013-11-23 16:23:00,
2013-11-23 11:33:00,28.0,-99.9,-100.00,NW,321,21.0,33.0,-999,-99.99,,,-99.99,,2013-11-23 16:33:00,
2013-11-23 11:53:00,28.0,-99.9,-100.00,NW,321,21.0,32.0,-999,-99.99,,,-99.99,,2013-11-23 16:53:00,
2013-11-23 12:03:00,28.0,-99.9,-100.00,NW,321,21.0,32.0,-999,-99.99,,,-99.99,,2013-11-23 17:03:00,
2013-11-23 12:23:00,28.0,-99.9,-100.00,NW,314,27.0,32.0,-999,-99.99,,,-99.99,,2013-11-23 17:23:00,
2013-11-23 12:42:00,28.0,-99.9,-100.00,NW,313,26.0,31.0,-999,-99.99,,,-99.99,,2013-11-23 17:42:00,
2013-11-23 12:52:00,28.0,-99.9,-100.00,NW,326,26.0,0.0,-999,-99.99,,,-99.99,,2013-11-23 17:52:00,
2013-11-23 13:02:00,28.0,-99.9,-100.00,NW,326,26.0,0.0,-999,-99.99,,,-99.99,,2013-11-23 18:02:00,
2013-11-23 13:22:00,27.0,-99.9,-100.00,NW,310,25.0,36.0,-999,-99.99,,,-99.99,,2013-11-23 18:22:00,
2013-11-23 13:33:00,27.0,-99.9,-100.00,NW,310,25.0,36.0,-999,-99.99,,,-99.99,,2013-11-23 18:33:00,
2013-11-23 13:52:00,27.0,-99.9,-100.00,NW,317,32.0,32.0,-999,-99.99,,,-99.99,,2013-11-23 18:52:00,
2013-11-23 14:11:00,28.0,-99.9,-100.00,NNW,328,25.0,0.0,-999,-99.99,,,-99.99,,2013-11-23 19:11:00,
2013-11-23 14:22:00,27.0,-99.9,-100.00,NW,320,31.0,37.0,-999,-99.99,,,-99.99,,2013-11-23 19:22:00,
2013-11-23 14:32:00,27.0,-99.9,-100.00,NW,320,31.0,37.0,-999,-99.99,,,-99.99,,2013-11-23 19:32:00,
2013-11-23 15:22:00,27.0,-99.9,-100.00,NW,315,27.0,37.0,-999,-99.99,,,-99.99,,2013-11-23 20:22:00,
2013-11-23 15:32:00,27.0,-99.9,-100.00,NW,315,27.0,37.0,-999,-99.99,,,-99.99,,2013-11-23 20:32:00,
2013-11-23 15:53:00,26.0,-99.9,-100.00,NW,312,27.0,29.0,-999,-99.99,,,-99.99,,2013-11-23 20:53:00,
2013-11-23 16:11:00,26.0,-99.9,-100.00,NW,321,31.0,0.0,-999,-99.99,,,-99.99,,2013-11-23 21:11:00,
2013-11-23 16:22:00,27.0,-99.9,-100.00,NW,314,24.0,37.0,-999,-99.99,,,-99.99,,2013-11-23 21:22:00,
2013-11-23 16:33:00,27.0,-99.9,-100.00,NW,314,24.0,37.0,-999,-99.99,,,-99.99,,2013-11-23 21:33:00,
2013-11-23 16:43:00,27.0,-99.9,-100.00,NW,314,24.0,37.0,-999,-99.99,,,-99.99,,2013-11-23 21:43:00,
2013-11-23 16:53:00,26.0,-99.9,-100.00,NW,321,28.0,0.0,-999,-99.99,,,-99.99,,2013-11-23 21:53:00,
2013-11-23 17:03:00,26.0,-99.9,-100.00,NW,321,28.0,0.0,-999,-99.99,,,-99.99,,2013-11-23 22:03:00,
2013-11-23 17:23:00,26.0,-99.9,-100.00,NW,326,25.0,37.0,-999,-99.99,,,-99.99,,2013-11-23 22:23:00,
2013-11-23 17:33:00,26.0,-99.9,-100.00,NW,326,25.0,37.0,-999,-99.99,,,-99.99,,2013-11-23 22:33:00,
2013-11-23 17:53:00,26.0,-99.9,-100.00,NW,311,28.0,29.0,-999,-99.99,,,-99.99,,2013-11-23 22:53:00,
2013-11-23 18:12:00,26.0,-99.9,-100.00,NW,322,27.0,0.0,-999,-99.99,,,-99.99,,2013-11-23 23:12:00,
2013-11-23 18:22:00,26.0,-99.9,-100.00,NNW,329,26.0,32.0,-999,-99.99,,,-99.99,,2013-11-23 23:22:00,
2013-11-23 18:33:00,26.0,-99.9,-100.00,NNW,329,26.0,32.0,-999,-99.99,,,-99.99,,2013-11-23 23:33:00,
2013-11-23 18:42:00,26.0,-99.9,-100.00,NNW,329,26.0,32.0,-999,-99.99,,,-99.99,,2013-11-23 23:42:00,
2013-11-23 18:53:00,26.0,-99.9,-100.00,NW,323,25.0,0.0,-999,-99.99,,,-99.99,,2013-11-23 23:53:00,
2013-11-23 19:02:00,26.0,-99.9,-100.00,NW,323,25.0,0.0,-999,-99.99,,,-99.99,,2013-11-24 00:02:00,
2013-11-23 19:22:00,26.0,-99.9,-100.00,NW,316,23.0,33.0,-999,-99.99,,,-99.99,,2013-11-24 00:22:00,
2013-11-23 19:32:00,26.0,-99.9,-100.00,NW,316,23.0,33.0,-999,-99.99,,,-99.99,,2013-11-24 00:32:00,
2013-11-23 19:52:00,27.0,-99.9,-100.00,NNW,332,23.0,29.0,-999,-99.99,,,-99.99,,2013-11-24 00:52:00,
2013-11-23 20:02:00,27.0,-99.9,-100.00,NNW,332,23.0,29.0,-999,-99.99,,,-99.99,,2013-11-24 01:02:00,
2013-11-23 20:22:00,26.0,-99.9,-100.00,NW,320,25.0,32.0,-999,-99.99,,,-99.99,,2013-11-24 01:22:00,
2013-11-23 20:32:00,26.0,-99.9,-100.00,NW,320,25.0,32.0,-999,-99.99,,,-99.99,,2013-11-24 01:32:00,
2013-11-23 20:53:00,25.0,-99.9,-100.00,NW,319,23.0,0.0,-999,-99.99,,,-99.99,,2013-11-24 01:53:00,
2013-11-23 21:01:00,25.0,-99.9,-100.00,NW,319,23.0,0.0,-999,-99.99,,,-99.99,,2013-11-24 02:01:00,
2013-11-23 21:22:00,25.0,-99.9,-100.00,NW,321,23.0,31.0,-999,-99.99,,,-99.99,,2013-11-24 02:22:00,
2013-11-23 21:42:00,26.0,-99.9,-100.00,NW,318,21.0,29.0,-999,-99.99,,,-99.99,,2013-11-24 02:42:00,
2013-11-23 21:52:00,26.0,-99.9,-100.00,NW,318,21.0,29.0,-999,-99.99,,,-99.99,,2013-11-24 02:52:00,
2013-11-23 22:11:00,26.0,-99.9,-100.00,NNW,327,24.0,0.0,-999,-99.99,,,-99.99,,2013-11-24 03:11:00,
2013-11-23 22:22:00,26.0,-99.9,-100.00,NW,323,23.0,34.0,-999,-99.99,,,-99.99,,2013-11-24 03:22:00,
2013-11-23 22:33:00,26.0,-99.9,-100.00,NW,323,23.0,34.0,-999,-99.99,,,-99.99,,2013-11-24 03:33:00,
2013-11-23 22:54:00,26.0,-99.9,-100.00,NW,319,20.0,30.0,-999,-99.99,,,-99.99,,2013-11-24 03:54:00,
2013-11-23 23:03:00,-999.0,-99.9,-100.00,NW,307,23.0,0.0,-999,-99.99,,,-99.99,,2013-11-24 04:03:00,
2013-11-23 23:23:00,24.0,-99.9,-100.00,NW,305,15.0,31.0,-999,-99.99,,,-99.99,,2013-11-24 04:23:00,
2013-11-23 23:33:00,24.0,-99.9,-100.00,NW,305,15.0,31.0,-999,-99.99,,,-99.99,,2013-11-24 04:33:00,
2013-11-23 23:43:00,24.0,-99.9,-100.00,NW,305,15.0,31.0,-999,-99.99,,,-99.99,,2013-11-24 04:43:00,
2013-11-23 23:53:00,25.0,-99.9,-100.00,NNW,330,20.0,30.0,-999,-99.99,,,-99.99,,2013-11-24 04:53:00,